User: anonymous   Login
Location: Unspecified
(0.0000°N, 0.0000°E)
Time: 20:54:39
(UTC+00:00)
Language:

NOSS 7 (A) - Orbit

View from above orbital plane
View from above orbital plane
View from above satellite
View from above satellite

Ground track
Ground track

The orbit data is extracted from the following two-line orbital elements,

1 16591U 86014A   18125.85302399 0.00001350  00000-0  12802-3 0    05
2 16591  63.3054  41.3027 0907998  55.2834 304.7166 13.48792622    02
Epoch (UTC): 05 May 2018 20:28:21
Eccentricity: 0.0907998
inclination: 63.3054°
perigee height: 400 km
apogee height: 1753 km
right ascension of ascending node: 41.3027°
argument of perigee: 55.2834°
revolutions per day: 13.48792622
mean anomaly at epoch: 304.7166°
orbit number at epoch: 0

The dashed part of the orbit path shows where the satellite is in the earth's shadow,  

DLR